www.pogodaiklimat.ru

Погода и климат >> Архив погоды >> Россия >> Краснодарский край >> Крымск


ПОГОДА в Крымске

  • Прогноз погоды в Крымске
  • Монитор погоды в Крымске

АРХИВ ПОГОДЫ в Крымске

Время (UTC), дата Ветер
(напр.,м/с)
 
Видим.   Явления Облачность Т
(С)
Тd
(С)
f
(%)
Тe
(С)
Тes
(С)
Комфортность P
(гПа)
Po
(гПа)
Тmin
(С)
Tmax
(С)
R
(мм)
R24
(мм)
S
(см)
03 9.09 штиль 0 20 км ясно +9.3 +6.4 82 +9 +9 1019.3 1015.1 +9.3
06 9.09 СВ 3 20 км ясно +18.8 +7.5 48 +19 +24 1018.9 1014.9 +9.3
09 9.09 В 7-13
{16}
10 км ясно +25.2 +4.4 26 +25 +28 комфорт 1017.1 1013.2
12 9.09 В 7-13
{15}
10 км ясно +26.7 +4.5 24 +26 +28 жарко 1016.4 1012.5
15 9.09 В 4
{14}
20 км ясно +24.9 +4.6 27 +24 +25 комфорт 1016.1 1012.2 +26.8
18 9.09 СВ 3 10 км ясно +20.8 +5.8 38 +22 +22 комфорт 1016.7 1012.7
21 9.09 В 1 10 км ясно +15.9 +7.4 57 +17 +17 1016.9 1012.9
00 10.09 штиль 0 10 км ясно +11.7 +7.9 77 +11 +11 1017.1 1013.0
03 10.09 З 1 10 км 3/0
[Ac As]
+10.3 +7.7 84 +10 +10 1017.7 1013.5 +10.3
06 10.09 В 2 20 км ясно +18.7 +9.9 57 +20 +25 1018.5 1014.5
09 10.09 В 7-14
{14}
20 км ясно +24.4 +8.8 37 +25 +28 комфорт 1017.6 1013.7
12 10.09 В 7-12
{14}
20 км ясно +26.7 +6.9 28 +26 +28 жарко 1016.9 1012.9
15 10.09 В 4
{13}
20 км ясно +25.6 +6.6 30 +25 +26 комфорт 1016.8 1012.9 +27.0
18 10.09 С 2 10 км ясно +20.5 +8.5 46 +22 +22 комфорт 1017.7 1013.7
21 10.09 СВ 2 10 км ясно +18.2 +6.4 46 +19 +19 1018.2 1014.2
00 11.09 ЮЗ 1 10 км ясно +13.2 +6.8 65 +14 +14 1019.1 1015.0
03 11.09 С 1 10 км ясно +11.3 +7.5 77 +11 +11 1020.3 1016.2 +11.1
06 11.09 В 3 10 км 3/3 600 м
[Cu hum]
+19.7 +11.9 61 +21 +24 комфорт 1021.1 1017.1
09 11.09 В 6-11
{12}
20 км 4/4 600 м
[Cu hum]
+24.7 +12.3 46 +26 +29 жарко 1020.6 1016.6
12 11.09 В 6-12
{13}
20 км 3/3 600 м
[Cu hum]
+28.2 +10.1 32 +28 +31 жарко 1019.9 1016.0
15 11.09 В 4
{14}
20 км ясно +26.6 +8.2 31 +27 +27 жарко 1020.0 1016.1 +28.2
18 11.09 С 2
{11}
10 км ясно +21.0 +9.5 48 +23 +23 комфорт 1021.1 1017.1
21 11.09 СВ 1 10 км ясно +17.1 +5.6 47 +18 +18 1021.2 1017.1
00 12.09 З 1 10 км ясно +12.5 +6.3 66 +13 +13 1021.6 1017.4
03 12.09 З 1 10 км ясно +9.4 +6.4 82 +9 +9 1022.7 1018.5 +9.1
06 12.09 СВ 2 20 км ясно +18.6 +7.8 49 +20 +24 1023.0 1019.0
09 12.09 СВ 6-11
{13}
20 км ясно +26.0 +4.6 25 +25 +30 комфорт 1021.4 1017.4
12 12.09 В 6-11
{13}
50 км ясно +27.9 +2.5 19 +26 +29 жарко 1020.2 1016.3
15 12.09 В 4
{11}
20 км ясно +26.0 +3.2 23 +25 +25 комфорт 1019.8 1015.9 +28.1
18 12.09 СВ 4 10 км ясно +22.0 +3.9 31 +22 +22 комфорт 1020.7 1016.7
21 12.09 штиль 0 10 км ясно +16.1 +6.3 52 +16 +16 1020.1 1016.1
00 13.09 ЮЗ 1 10 км ясно +11.1 +5.7 69 +11 +11 1020.5 1016.3
03 13.09 штиль 0 10 км ясно +8.8 +5.5 80 +8 +8 1020.8 1016.7 +8.8
06 13.09 СВ 1 10 км ясно +18.0 +7.5 50 +19 +25 1021.8 1017.7 +8.4
09 13.09 В 2-10
{11}
н/о н/о +25.1 +5.3 28 +25 +36 комфорт 1022.3 1018.2
12 13.09 В 2
{10}
20 км ясно +27.3 +3.2 21 +26 +33 жарко 1019.7 1015.6
15 13.09 СВ 2 20 км ясно +25.6 +4.9 26 +25 +25 комфорт 1018.5 1014.6 +27.6
18 13.09 В 1 10 км ясно +15.7 +8.0 60 +16 +16 1019.4 1015.4
21 13.09 З 1 10 км ясно +12.5 +7.4 71 +13 +13 1019.5 1015.4
00 14.09 З 1 10 км ясно +10.1 +6.7 79 +10 +10 1019.8 1015.6
03 14.09 З 1 10 км ясно +8.3 +5.8 84 +8 +8 1019.8 1015.6 +8.3
06 14.09 С 1 10 км ясно +17.7 +7.1 50 +19 +24 1020.1 1016.1 +8.2
09 14.09 СВ 3 20 км ясно +24.4 +8.7 37 +25 +35 комфорт 1019.0 1015.1
12 14.09 С 2 20 км 3/3 600 м
[Cu med, cong]
+27.1 +5.4 25 +26 +31 жарко 1017.7 1013.8
15 14.09 С 3 10 км ясно +24.6 +7.3 33 +25 +25 комфорт 1017.2 1013.3 +27.3
18 14.09 ЮЗ 1 10 км ясно +17.9 +8.4 54 +19 +19 1018.2 1014.2
21 14.09 ЮЗ 1 10 км ясно +12.9 +7.9 72 +13 +13 1018.5 1014.4
00 15.09 ЮЗ 2 10 км ясно +11.5 +7.5 76 +10 +10 1018.5 1014.4
03 15.09 ЮЗ 1 10 км 8/3 600 м
[Sc Ac trans]
+11.6 +7.9 78 +12 +12 1018.8 1014.7 +11.0
06 15.09 З 1 20 км 4/0
[Ac trans Ci fib]
+21.1 +10.8 52 +23 +27 комфорт 1019.5 1015.5
09 15.09 СЗ 4 10 км 1/0
[Ac trans]
+24.6 +11.9 45 +26 +33 жарко 1019.7 1015.7
12 15.09 С 2 10 км ясно +25.6 +8.4 34 +26 +33 жарко 1019.5 1015.6
15 15.09 СЗ 3 10 км ясно +22.9 +8.6 40 +24 +24 комфорт 1020.2 1016.2 +25.6
18 15.09 ЮЗ 1 10 км ясно +15.9 +8.6 62 +17 +17 1021.5 1017.5
21 15.09 ЮЗ 2 10 км ясно +11.6 +8.5 81 +10 +10 1020.9 1016.8

 

Местоположение метеостанции Крымск (Краснодарский край, Россия): широта 44.92 долгота 38.00 высота над уровнем моря 35 м.

В архиве по умолчанию представлена погода в Крымске за последнюю неделю. Архивные данные за месяц целиком и за предыдущие месяцы, начиная с января 2011 года, Вы можете получить, выбрав интересующий диапазон дат из раскрывающегося списка и нажав кнопку "Ввод!".


*Определитесь, кто Вы:
робот инопланетянин человек

Внимание! Время в таблицах - всемирное. Для получения местного времени необходимо прибавить поправку, которая равна 3 ч.

Смотрите также архив погоды в соседних городах и на ближайших метеорологических станциях:

Погода в Новороссийске (Краснодарский край, Россия) (25 км)
Погода в Геленджике (Краснодарский край, Россия) (39 км)
Погода в Славянске-на-Кубани (Краснодарский край, Россия) (41 км)
Погода в Анапе (Краснодарский край, Россия) (57 км)
Погода в Темрюке (Краснодарский край, Россия) (66 км)
Погода в Краснодаре (Краснодарский край, Россия) (82 км)
Погода в Джубге (Краснодарский край, Россия) (87 км)
Погода в Горячем Ключе (Краснодарский край, Россия) (93 км)
Погода в Тамани (Краснодарский край, Россия) (106 км)
Погода в Тимашевске (Краснодарский край, Россия) (107 км)

Пояснения к столбцам:

Ветер - указаны скорость ветра в м/с - средняя за 10 мин, порывы в срок и между сроками (в фигурных скобках) и направление, откуда дует ветер: С - северный, СВ - северо-восточный, В - восточный, ЮВ - юго-восточный, Ю - южный, ЮЗ - юго-западный, З - западный, СЗ - северо-западный.
Видимость - горизонтальная дальность видимости в метрах или километрах. При видимости от 1 до 10 км при отсутствии осадков обычно наблюдается дымка, при ухудшении видимости до 1 км и менее - туман. В сухую погоду видимость может ухудшаться дымом, пылью или мглою.
Явления - указаны атмосферные явления, наблюдавшиеся в срок или в последний час перед сроком; фигурными скобками обозначены явления, наблюдавшиеся между сроками (за 1-3 часа до срока); квадратными скобками обозначены град или гололедные отложения с указанием их диаметра в мм.
Облачность - указаны через наклонную черту общая и нижняя облачность в баллах и высота нижней границы облаков в метрах; квадратными скобками обозначены формы облаков: Ci - перистые, Cs - перисто-слоистые, Cc - перисто-кучевые, Ac - высококучевые, As - высокослоистые, Sc - слоисто-кучевые, Ns - слоисто-дождевые, Cu - кучевые, Cb - кучево-дождевые. Подробнее классификацию облаков см. в Атласе облаков (PDF).
T - Температура воздуха - температура, измеренная на высоте 2 м над землей.
Td - Температура точки росы - температура, при понижении до которой содержащийся в воздухе водяной пар достигнет насыщения.
f - Относительная влажность воздуха - влажноcть воздуха, измеренная на высоте 2 м над землей.
Te - Эффективная температура - температура, которую ощущает одетый по сезону человек в тени. Характеристика душности погоды. При расчете учитывается влияние влажности воздуха и скорости ветра на теплоощущения человека.
Tes - Эффективная температура на солнце - температура, которую ощущает человек, с поправкой на солнечный нагрев. Характеристика знойности погоды. Зависит от высоты солнца над горизонтом, облачности и скорости ветра. Ночью, в пасмурную погоду, а также при ветре 12 м/с и более поправка равна нулю.
P - Атмосферное давление - приведенное к уровню моря атмосферное давление.
Po - Атмосферное давление - измеренное на уровне метеостанции атмосферное давление.
Tmin - Минимальная температура - минимум температуры воздуха на высоте 2 м над землей.
Tmax - Максимальная температура - максимум температуры воздуха на высоте 2 м над землей.
R - Количество осадков - Количество выпавших осадков за период времени, мм. При наведении курсора мыши на число - период времени, за который выпало указанное количество осадков.
R24 - Количество осадков - Количество выпавших осадков за 24 часа, мм.
S - Снежный покров - Высота снежного покрова, см. При наведении курсора мыши на число - состояние снежного покрова и степень покрытия местности в баллах.